星链-31860 (STARLINK-31860 )

导读 | 豆包AI

STARLINK-31860是美国SpaceX公司星链星座的成员卫星,于2024年5月6日发射升空。星链项目旨在打造全球低轨宽带互联网星座,为全球用户提供高速网络接入服务。该卫星属于量产型卫星,采用平板设计,搭载Ku/Ka波段通信载荷,配备氪工质霍尔推进器,具备自主避撞能力,使用寿命约5-7年,退役后将主动离轨坠入大气层烧毁,目前已在近地轨道稳定运行,参与全球卫星互联网服务组网。

基本信息
目录编号:
59670
目录名称:
STARLINK-31860
国际标识:
2024-084S
轨道中心:
EARTH
卫星名称:
星链-31860
卫星全名:
星链-31860 (STARLINK-31860 )
卫星状态:
在轨 (已飞行678 天)
发射日期:
2024-05-06 UTC
国别 :
美国 (US)
星等 :
--
轨道信息
数据来源 国际轨道数据
星历时间: 2026-03-15T10:51:35+0800
16小时前
查看轨道信息
半长轴: 6861.186km
偏心率: 0.0001548
轨道倾角: 43.006°
近地点辐角 293.227°
升交点赤经 7.663°
平近点角 66.841°
近地点: 481.986km
远地点: 484.112km
周期: 94.267分钟
每日圈数: 15.275802
详细信息
固有亮度:
5
最大亮度:
1.5
卫星平台:
Starlink v2.0 mini
覆盖范围:
全球
运营商:
太空探索技术公司
运营商所在国:
美国
制造商(研发单位):
太空探索技术公司
制造商所在国:
美国
使用方式:
暂无
卫星简介
星链(Starlink)计划是由太空探索技术公司(SpaceX)提出的一个巨型低轨卫星互联网星座项目,计划在2019年至2024年间在太空搭建由约1.2万颗卫星组成的“星链”网络,其中1584颗将部署在地球上空550千米处的近地轨道,并从2020年开始工作。该卫星仍在工作。
2D轨道图
3D轨道图
轨道高度分析图
轨道倾角分析图
轨道综合分析图
查看轨道综合分析图